EW8935 Weather Reports


time (UTC)temp
C
wind
direction
speed
KPH
gust
KPH
rain 1hr
cm
rain 24hr
cm
rain mn
cm
humidity
%
barometer
mb
20260906174317 38 0.0 0.0 0.00 0.00 0.00 35 1016.2
20260906173317 37 0.0 0.0 0.00 0.00 0.00 38 1016.3
20260906172337 36 0.0 0.0 0.00 0.00 0.00 40 1016.4
20260906171317 37 0.0 0.0 0.00 0.00 0.00 39 1016.7
20260906170316 37 0.0 0.0 0.00 0.00 0.00 39 1016.8
20260906165317 36 0.0 0.0 0.00 0.00 0.00 42 1016.8
20260906164317 35 0.0 0.0 0.00 0.00 0.00 44 1016.9
20260906163337 35 0.0 0.0 0.00 0.00 0.00 45 1017.0
20260906162316 33 0.0 0.0 0.00 0.00 0.00 48 1016.9
20260906161316 33 0.0 0.0 0.00 0.00 0.00 51 1017.1
20260906160316 32 0.0 0.0 0.00 0.00 0.00 52 1017.0
20260906155316 32 0.0 0.0 0.00 0.00 0.00 54 1017.0
20260906154337 31 0.0 0.0 0.00 0.00 0.00 55 1016.9
20260906153316 31 0.0 0.0 0.00 0.00 0.00 58 1016.9
20260906152336 30 0.0 0.0 0.00 0.00 0.00 61 1016.7
20260906151336 28 0.0 0.0 0.00 0.00 0.00 64 1016.6
20260906150317 28 0.0 0.0 0.00 0.00 0.00 66 1016.5
20260906145316 27 0.0 0.0 0.00 0.00 0.00 71 1016.6
20260906144316 27 0.0 0.0 0.00 0.00 0.00 70 1016.7
20260906143316 26 0.0 0.0 0.00 0.00 0.00 74 1016.7
20260906142316 26 0.0 0.0 0.00 0.00 0.00 77 1016.7
20260906141316 25 0.0 0.0 0.00 0.00 0.00 79 1016.7
20260906140316 24 0.0 0.0 0.00 0.00 0.00 82 1016.5
20260906135316 23 0.0 0.0 0.00 0.00 0.00 86 1016.6
20260906134316 23 0.0 0.0 0.00 0.00 0.00 89 1016.6
20260906133316 22 0.0 0.0 0.00 0.00 0.00 90 1016.3
20260906132338 22 0.0 0.0 0.00 0.00 0.00 90 1016.3
20260906131316 22 0.0 0.0 0.00 0.00 0.00 90 1016.2
20260906130316 22 0.0 0.0 0.00 0.00 0.00 89 1016.3
20260906125356 22 0.0 0.0 0.00 0.00 0.00 88 1016.2
20260906124316 21 0.0 0.0 0.00 0.00 0.00 88 1016.1
20260906123316 21 0.0 0.0 0.00 0.00 0.00 88 1015.9
20260906122316 22 0.0 0.0 0.00 0.00 0.00 87 1015.8
20260906121316 22 0.0 0.0 0.00 0.00 0.00 87 1015.7
20260906120316 22 0.0 0.0 0.00 0.00 0.00 87 1015.6
20260906115316 22 0.0 0.0 0.00 0.00 0.00 86 1015.4
20260906114318 22 0.0 0.0 0.00 0.00 0.00 86 1015.4
20260906113356 22 0.0 0.0 0.00 0.00 0.00 85 1015.5
20260906112316 22 0.0 0.0 0.00 0.00 0.00 86 1015.4
20260906111316 22 0.0 0.0 0.00 0.00 0.00 86 1015.3
20260906110316 22 0.0 0.0 0.00 0.00 0.00 85 1015.2
20260906105336 22 0.0 0.0 0.00 0.00 0.00 85 1015.3
20260906104316 22 0.0 0.0 0.00 0.00 0.00 84 1015.2
20260906103416 22 0.0 0.0 0.00 0.00 0.00 84 1015.3
20260906102316 22 0.0 0.0 0.00 0.00 0.00 84 1015.2
20260906101336 22 0.0 0.0 0.00 0.00 0.00 83 1015.2
20260906100318 22 0.0 0.0 0.00 0.00 0.00 83 1015.0
20260906095316 23 0.0 0.0 0.00 0.00 0.00 83 1015.1
20260906094316 23 0.0 0.0 0.00 0.00 0.00 82 1015.1
20260906093316 23 0.0 0.0 0.00 0.00 0.00 81 1015.1
20260906092316 23 0.0 0.0 0.00 0.00 0.00 81 1015.1
20260906091316 23 0.0 0.0 0.00 0.00 0.00 81 1015.0
20260906090316 23 0.0 0.0 0.00 0.00 0.00 81 1015.0
20260906085316 23 0.0 0.0 0.00 0.00 0.00 79 1014.9
20260906084336 23 0.0 0.0 0.00 0.00 0.00 79 1014.9
20260906083316 23 0.0 0.0 0.00 0.00 0.00 78 1014.9
20260906082316 23 0.0 0.0 0.00 0.00 0.00 78 1014.8
20260906081316 24 0.0 0.0 0.00 0.00 0.00 78 1014.9
20260906080316 24 0.0 0.0 0.00 0.00 0.00 77 1014.8
20260906075316 24 0.0 0.0 0.00 0.00 0.00 76 1014.8
20260906074315 24 0.0 0.0 0.00 0.00 0.00 76 1014.8
20260906073316 25 0.0 0.0 0.00 0.00 0.00 75 1015.0
20260906072336 25 0.0 0.0 0.00 0.00 0.00 75 1015.1
20260906071315 25 0.0 0.0 0.00 0.00 0.00 74 1015.0
20260906070315 25 0.0 0.0 0.00 0.00 0.00 73 1015.1
20260906065315 25 0.0 0.0 0.00 0.00 0.00 73 1015.2
20260906064315 25 0.0 0.0 0.00 0.00 0.00 73 1015.2
20260906063315 25 0.0 0.0 0.00 0.00 0.00 72 1015.4
20260906062315 25 0.0 0.0 0.00 0.00 0.00 72 1015.4
20260906061336 25 0.0 0.0 0.00 0.00 0.00 72 1015.3
20260906060315 26 0.0 0.0 0.00 0.00 0.00 72 1015.3
20260906055315 26 0.0 0.0 0.00 0.00 0.00 70 1015.4
20260906054335 26 0.0 0.0 0.00 0.00 0.00 71 1015.1
20260906053336 26 0.0 0.0 0.00 0.00 0.00 70 1015.1
20260906052315 26 0.0 0.0 0.00 0.00 0.00 70 1015.1
20260906051315 26 0.0 0.0 0.00 0.00 0.00 69 1015.0
20260906050315 26 0.0 0.0 0.00 0.00 0.00 68 1015.0
20260906045315 27 0.0 0.0 0.00 0.00 0.00 68 1015.1
20260906044315 27 0.0 0.0 0.00 0.00 0.00 66 1015.0
20260906043335 27 0.0 0.0 0.00 0.00 0.00 65 1015.0
20260906042315 27 0.0 0.0 0.00 0.00 0.00 64 1015.1
20260906041315 28 0.0 0.0 0.00 0.00 0.00 64 1015.1
20260906040315 28 0.0 0.0 0.00 0.00 0.00 62 1014.9
20260906035315 28 0.0 0.0 0.00 0.00 0.00 62 1015.0
20260906034315 28 0.0 0.0 0.00 0.00 0.00 61 1014.8
20260906033315 29 0.0 0.0 0.00 0.00 0.00 59 1014.9
20260906032315 29 0.0 0.0 0.00 0.00 0.00 57 1014.7
20260906031335 30 0.0 0.0 0.00 0.00 0.00 56 1014.5
20260906030315 30 0.0 0.0 0.00 0.00 0.00 55 1014.5
20260906025315 30 0.0 0.0 0.00 0.00 0.00 54 1014.3
20260906024335 31 0.0 0.0 0.00 0.00 0.00 53 1014.1
20260906023317 31 0.0 0.0 0.00 0.00 0.00 51 1014.1
20260906022317 31 0.0 0.0 0.00 0.00 0.00 50 1013.9
20260906021337 32 0.0 0.0 0.00 0.00 0.00 49 1013.9
20260906020317 32 0.0 0.0 0.00 0.00 0.00 49 1013.5
20260906015317 32 0.0 0.0 0.00 0.00 0.00 48 1013.7
20260906014317 32 0.0 0.0 0.00 0.00 0.00 47 1013.2
20260906013317 33 0.0 0.0 0.00 0.00 0.00 46 1013.1
20260906012317 33 0.0 0.0 0.00 0.00 0.00 46 1013.2
20260906011317 33 0.0 0.0 0.00 0.00 0.00 46 1012.9
20260906010337 33 0.0 0.0 0.00 0.00 0.00 45 1013.0
20260906005317 34 0.0 0.0 0.00 0.00 0.00 44 1013.0
20260906004357 35 0.0 0.0 0.00 0.00 0.00 43 1013.1
20260906003337 35 0.0 0.0 0.00 0.00 0.00 41 1013.0
20260906002317 35 0.0 0.0 0.00 0.00 0.00 42 1013.1
20260906001337 35 0.0 0.0 0.00 0.00 0.00 41 1013.1
20260906000337 36 0.0 0.0 0.00 0.00 0.00 39 1013.1
20260905235337 35 0.0 0.0 0.00 0.00 0.00 39 1013.0
20260905234317 36 0.0 0.0 0.00 0.00 0.00 37 1012.8
20260905233317 36 0.0 0.0 0.00 0.00 0.00 36 1013.0
20260905232317 37 0.0 0.0 0.00 0.00 0.00 35 1013.0
20260905231317 37 0.0 0.0 0.00 0.00 0.00 35 1013.1
20260905230317 37 0.0 0.0 0.00 0.00 0.00 34 1013.1
20260905225317 37 0.0 0.0 0.00 0.00 0.00 33 1013.0
20260905224337 37 0.0 0.0 0.00 0.00 0.00 35 1013.0
20260905223317 37 0.0 0.0 0.00 0.00 0.00 36 1013.0
20260905222337 37 0.0 0.0 0.00 0.00 0.00 34 1013.0
20260905221317 37 0.0 0.0 0.00 0.00 0.00 35 1013.2
20260905220317 38 0.0 0.0 0.00 0.00 0.00 32 1013.3
20260905215317 38 0.0 0.0 0.00 0.00 0.00 33 1013.3
20260905214317 38 0.0 0.0 0.00 0.00 0.00 33 1013.3
20260905213317 39 0.0 0.0 0.00 0.00 0.00 32 1013.4
20260905212317 39 0.0 0.0 0.00 0.00 0.00 32 1013.5
20260905211317 40 0.0 0.0 0.00 0.00 0.00 32 1013.8
20260905210317 39 0.0 0.0 0.00 0.00 0.00 33 1013.9
20260905205317 38 0.0 0.0 0.00 0.00 0.00 36 1014.0
20260905204357 39 0.0 0.0 0.00 0.00 0.00 33 1014.3
20260905203316 38 0.0 0.0 0.00 0.00 0.00 35 1014.5
20260905202317 38 0.0 0.0 0.00 0.00 0.00 34 1014.6
20260905201317 39 0.0 0.0 0.00 0.00 0.00 34 1014.7
20260905200316 40 0.0 0.0 0.00 0.00 0.00 34 1015.0
20260905195316 38 0.0 0.0 0.00 0.00 0.00 36 1014.9
20260905194317 38 0.0 0.0 0.00 0.00 0.00 36 1015.0
20260905193317 39 0.0 0.0 0.00 0.00 0.00 35 1015.2
20260905192317 38 0.0 0.0 0.00 0.00 0.00 36 1015.2
20260905191316 38 0.0 0.0 0.00 0.00 0.00 35 1015.4
20260905190317 38 0.0 0.0 0.00 0.00 0.00 36 1015.6
20260905185316 38 0.0 0.0 0.00 0.00 0.00 37 1016.0
20260905184316 38 0.0 0.0 0.00 0.00 0.00 40 1016.1
20260905183316 38 0.0 0.0 0.00 0.00 0.00 39 1016.1
20260905182316 37 0.0 0.0 0.00 0.00 0.00 40 1016.2
20260905181316 38 0.0 0.0 0.00 0.00 0.00 39 1016.5
20260905180316 37 0.0 0.0 0.00 0.00 0.00 39 1016.7
20260905175316 37 0.0 0.0 0.00 0.00 0.00 42 1016.9